Location: Dessau
(51.7984°N, 12.2168°E)
Time: 12:52:13
(UTC+02:00)

ISS - Visible Passes

Search period start: 18 July 2018 00:00
Search period end: 28 July 2018 00:00
Orbit: 402 x 408 km, 51.6° (Epoch: 18 July)

Date Brightness Start Highest point End Pass type
(mag) Time Alt. Az. Time Alt. Az. Time Alt. Az.
18 Jul -3.8 00:50:11 52° S 00:50:24 53° SSE 00:53:38 10° E visible
18 Jul -3.9 02:23:31 10° W 02:26:50 90° SW 02:30:09 10° E visible
18 Jul -3.7 04:00:01 10° W 04:03:16 55° SSW 04:06:30 10° ESE visible
18 Jul -3.4 23:58:10 37° SSE 23:58:23 38° SSE 00:01:29 10° E visible
19 Jul -4.0 01:31:26 10° W 01:34:43 86° S 01:38:02 10° E visible
19 Jul -3.9 03:07:55 10° W 03:11:12 71° SSW 03:14:30 10° ESE visible
19 Jul -2.9 23:03:37 10° SSW 23:06:25 26° SSE 23:09:14 10° E visible
20 Jul -4.0 00:39:20 10° WSW 00:42:37 75° SSE 00:45:55 10° E visible
20 Jul -4.0 02:15:48 10° W 02:19:07 83° S 02:22:25 10° E visible
20 Jul -3.2 03:52:22 10° W 03:55:24 34° SSW 03:58:26 10° SE visible
20 Jul -2.3 22:12:12 10° S 22:14:29 18° SE 22:16:47 10° E visible
20 Jul -3.9 23:47:17 10° WSW 23:50:31 59° SSE 23:53:46 10° E visible
21 Jul -3.9 01:23:40 10° W 01:26:58 90° S 01:30:17 10° E visible
21 Jul -3.7 03:00:11 10° W 03:03:22 48° SSW 03:06:34 10° SE visible
21 Jul -3.5 22:55:19 10° SW 22:58:27 43° SSE 23:01:36 10° E visible
22 Jul -3.9 00:31:32 10° W 00:34:49 88° S 00:38:08 10° E visible
22 Jul -3.9 02:08:02 10° W 02:11:17 65° SSW 02:14:33 10° ESE visible
22 Jul -2.5 03:44:51 10° W 03:47:23 21° SW 03:49:56 10° SSE visible
22 Jul -3.0 22:03:30 10° SW 22:06:25 30° SSE 22:09:22 10° E visible
22 Jul -4.0 23:39:23 10° WSW 23:42:41 80° S 23:45:58 10° E visible
23 Jul -4.0 01:15:52 10° W 01:19:10 79° S 01:20:44 28° ESE visible
23 Jul -1.7 02:52:28 10° W 02:53:14 15° W 02:53:14 15° W visible
23 Jul -3.9 22:47:17 10° WSW 22:50:32 65° SSE 22:53:48 10° E visible
24 Jul -3.9 00:23:42 10° W 00:27:00 88° S 00:29:01 22° E visible
24 Jul -2.1 02:00:13 10° W 02:01:37 22° W 02:01:37 22° W visible
24 Jul -3.6 21:55:14 10° SW 21:58:25 49° SSE 22:01:37 10° E visible
24 Jul -3.9 23:31:31 10° W 23:34:49 89° SW 23:38:00 11° E visible
25 Jul -3.4 01:08:00 10° W 01:10:36 46° WSW 01:10:36 46° WSW visible
25 Jul -3.9 22:39:20 10° W 22:42:38 84° S 22:45:56 10° E visible
26 Jul -4.0 00:15:49 10° W 00:19:07 75° S 00:19:48 51° ESE visible
26 Jul -3.9 21:47:10 10° WSW 21:50:26 71° SSE 21:53:43 10° E visible
26 Jul -3.9 23:23:37 10° W 23:26:55 86° S 23:29:04 20° E visible
27 Jul -2.1 01:00:09 10° W 01:01:42 23° W 01:01:42 23° W visible
27 Jul -3.9 22:31:24 10° W 22:34:41 90° SW 22:37:59 10° E visible
